Vertical_Velocity
-1 -1 -1 -0 -1 -1 -2 -1 -1 -1 -1 -1 -1 -0 -1 -0 -1 -1 -1 -2 -2 -1 -1 -1 -1 -2 -3 -3 -2 -2 -1 -2 -3 -4 -3 -2 -0 -3 -0 -0 -3 -1 3 2 -0 -2 -4
1 0 -1 0 -0 -1 -1 -2 -1 -1 -1 -1 -1 -2 -2 -1 -1 -1 -1 -1 0 -0 -1 -0 0 -1 -1 -2 -1 -2 -2 -2 -2 -3 -4 -2 -2 -1 -3 2 -1 -1 1 2 1 1 -4
-0 0 -0 0 0 -1 0 -1 -1 -0 -1 -1 -1 -1 0 -1 -2 -1 -1 -2 -2 -1 -1 -2 -1 -1 -1 -1 -2 -1 -2 -3 -1 -3 -3 -2 -2 -2 -2 -3 -1 -3 -8 2 2 0 -7
1 -1 -1 -1 -1 -0 -1 -0 -0 -0 -0 -1 -2 -2 -2 -0 -1 -0 -3 -0 0 -1 -1 -2 -2 0 -2 -3 -2 -3 -2 -3 -2 -2 -3 -1 -2 -1 -1 -3 -1 -4 -3 -4 2 1 -1
0 -0 -1 -2 -1 0 0 -1 -1 -2 -0 0 -1 -1 -1 -1 -1 -1 1 -1 -2 -2 2 -0 -1 -2 2 1 2 0 -2 -1 -0 1 -2 -1 1 -0 -1 -3 -1 -1 -7 -2 -8 1 -0
-0 -0 -2 -1 -0 1 -0 -1 -1 0 -1 0 -1 -1 0 1 0 -1 -3 -2 1 1 -2 -2 -0 0 -2 -0 -1 -1 -2 -3 -3 1 1 -1 1 -2 -1 -0 -3 -3 -3 -5 -1 -3 -0
0 -1 1 -3 -1 -2 -1 -1 2 0 -0 -2 -0 1 -0 -2 -2 1 1 -3 -3 -5 -1 -2 -2 -1 -1 -0 1 1 1 -1 -2 -1 -0 0 -1 -1 0 1 1 -3 2 -3 -2 3 -5
-2 -0 -2 -1 -0 0 -0 1 -1 -0 -1 0 -1 -0 -2 -0 -2 -2 -3 -3 -1 -1 -9 -2 -1 -1 -1 -1 1 -2 -1 -1 1 -3 -2 -3 -1 -0 -2 -1 1 0 -4 0 -4 -1 5
-0 -1 0 0 -1 -1 -0 -0 1 -0 -2 -0 -1 -1 -1 -3 -2 -2 -1 -1 -1 -1 -3 -1 0 0 -1 -1 -1 -0 -2 0 1 1 -2 -0 2 0 0 -0 -1 5 -2 -3 -1 -8 1
-1 -0 0 -1 -2 0 -0 -2 1 -2 -1 -1 -2 -2 -0 1 -4 1 -1 -3 -4 -1 -9 0 -1 -3 -1 -4 -2 -1 0 -0 -3 -2 1 -4 -0 -1 -0 -2 2 -2 -1 -1 -4 -0 -5
-0 1 -2 1 -3 -1 0 -1 -0 -1 -0 1 0 -4 5 -3 2 -4 -2 -1 -1 -2 -5 -0 1 0 -0 -1 1 -2 -2 -4 2 2 2 4 -0 -1 -2 1 3 -1 -2 3 3 -1 -1
-2 -1 -1 1 0 -0 -1 0 1 0 0 1 1 -3 -1 1 3 0 -2 -1 -1 -2 -13 -3 -1 -2 -3 1 0 -2 -1 -2 -1 -2 1 -2 1 -1 1 1 -0 3 -2 2 1 1 -1
-1 2 0 -2 -1 -3 -1 -2 0 -1 -2 -1 3 1 -5 -2 -2 1 1 3 0 -3 -3 -1 1 -2 -3 2 -0 2 -1 2 2 -5 -1 1 0 1 1 1 1 1 1 -5 -7 -3 -8
-1 -3 -4 -4 -1 -1 -1 -4 -7 -5 -3 -1 0 -0 1 1 4 5 2 7 4 -1 2 1 3 0 -3 1 -1 1 -1 -5 2 3 -1 -3 -10 -1 1 1 1 1 1 -2 -2 -1 -5
-1 -3 -2 -2 -3 -4 -4 -3 -2 1 -3 -0 0 -0 -3 -2 2 4 9 3 -4 11 4 5 4 -3 -2 4 4 3 -3 -3 -3 1 -0 -1 -5 -2 3 1 2 3 -1 1 1 1 0
-2 -2 -0 -4 -4 -4 -3 -4 -1 1 -3 -0 0 -1 -3 -0 5 -1 2 1 5 4 2 3 2 2 1 -1 -1 2 -5 1 3 4 4 -0 -7 -3 -2 2 1 1 5 1 0 -2 -1
-1 -2 0 1 -1 0 -2 -2 0 -2 -4 2 -0 -5 1 -1 3 -1 -0 2 2 3 4 3 2 -1 0 -1 0 1 -3 -2 4 3 3 4 4 -2 2 -1 4 2 -0 -1 -1 0 -2
-2 -4 -4 -2 -3 -3 -2 -5 -0 1 5 -4 -5 1 -2 4 2 0 2 0 -1 -3 2 2 3 1 4 3 2 1 -3 8 -0 4 2 3 1 -6 -3 4 3 -2 1 3 1 -2 0
-4 -6 -2 -2 -3 -2 -4 -4 -3 -5 -5 8 0 0 1 -0 3 0 1 1 3 -1 -3 1 2 5 2 0 -5 1 3 8 6 8 7 5 5 -3 -7 2 3 0 0 3 7 8 -9
-1 -0 -3 -2 -2 -3 -2 -4 -6 -4 -3 -6 -4 6 -1 -0 1 1 3 1 2 -1 1 1 0 3 1 1 6 0 -3 1 1 -1 -0 8 1 1 -9 -7 5 0 9 6 7 4 -6
-5 -4 -2 -5 -5 -2 -1 -3 -1 1 -3 1 -0 1 1 1 1 2 1 3 -1 -1 4 0 5 1 -1 -4 -9 -2 6 -3 4 4 6 6 -1 0 -4 -1 6 1 -5 7 5 -5 6
-1 -1 -1 -2 -5 -1 -3 -6 -10 -1 -3 -6 2 -1 3 0 1 1 4 -1 -1 2 -3 -1 4 -0 3 -1 4 -10 -10 6 5 -1 5 4 -7 3 -9 -4 5 -4 -7 -3 6 -7 -12
-3 -2 -1 -2 -1 -1 -5 -1 -1 -4 -2 -7 -6 -2 -0 3 2 -1 -0 2 2 3 4 -3 -7 -3 -0 0 0 3 1 5 -12 -8 -1 3 1 6 -25 -5 1 -15 -18 0 -5 1 5
-1 -3 -3 -7 -3 -3 -5 -2 -1 -1 -3 -1 -5 -4 -3 -4 -1 2 0 -1 -1 1 -3 -5 -1 5 4 -5 -8 -1 -2 -4 3 -2 11 -8 7 12 -13 4 5 -31 -7 6 -6 -5 7
0 -0 0 -4 0 -5 -3 -5 -3 0 -2 -1 -5 -3 -5 -5 -4 2 -2 -1 -2 -1 -4 -3 3 -5 -3 -5 -22 -24 -10 -14 -5 -1 8 14 30 4 -0 3 -18 -19 -23 -12 7 -39 19
0 -2 -5 -2 -1 1 -0 -2 -4 -2 -1 -2 -1 -3 -3 -3 -6 -4 -6 -1 -7 -6 -8 2 3 1 -1 -9 -0 -0 -6 -0 -11 -2 -2 1 7 29 23 7 -1 6 -3 7 13 -53 27
-4 -3 1 -1 -4 2 -0 0 -2 -1 1 -5 1 -1 -1 0 -3 -1 3 2 6 4 -1 -0 -4 -16 -2 -1 4 3 -11 -0 -5 -5 -0 -2 -0 3 -4 1 -21 -6 -10 11 11 2 -10
-0 -2 -2 -4 -2 -1 -0 -1 1 -0 0 -0 -2 1 -2 -4 1 -0 7 -1 1 0 17 -6 -4 -5 -1 4 -1 5 8 3 -6 8 3 9 5 -2 9 9 -3 7 16 20 -5 1 -0
0 -1 -2 -5 -4 -3 -2 -0 -1 -1 2 3 -8 -0 2 -2 -8 9 12 -1 -0 4 -13 4 -1 -1 0 -0 -6 -1 -7 14 1 -39 19 -14 -1 1 14 -3 4 17 24 17 6 1 4
Height
3179 3178 3177 3175 3174 3172 3171 3169 3167 3165 3163 3161 3159 3156 3154 3151 3147 3145 3142 3140 3137 3134 3131 3129 3126 3124 3121 3118 3115 3111 3108 3104 3100 3096 3093 3090 3087 3083 3081 3080 3078 3074 3071 3071 3069 3069 3068
3178 3178 3176 3175 3174 3172 3171 3169 3168 3166 3163 3161 3159 3156 3154 3151 3148 3145 3141 3139 3135 3132 3129 3126 3124 3122 3120 3118 3114 3111 3108 3104 3100 3096 3093 3090 3087 3084 3080 3078 3074 3072 3069 3067 3066 3066 3064
3178 3176 3175 3174 3173 3172 3170 3169 3167 3165 3163 3161 3158 3156 3153 3151 3148 3145 3142 3138 3134 3131 3127 3124 3122 3120 3118 3117 3113 3110 3107 3103 3101 3097 3093 3090 3087 3084 3080 3077 3073 3071 3067 3065 3063 3063 3062
3177 3176 3174 3173 3172 3171 3169 3167 3166 3164 3162 3160 3158 3156 3153 3151 3148 3144 3142 3138 3134 3130 3126 3122 3120 3118 3116 3114 3111 3108 3106 3103 3100 3097 3094 3089 3086 3083 3079 3076 3072 3069 3067 3064 3063 3061 3059
3176 3175 3174 3172 3171 3170 3168 3166 3164 3162 3160 3159 3157 3154 3152 3150 3147 3144 3141 3137 3133 3129 3125 3121 3119 3117 3115 3112 3110 3107 3104 3102 3099 3096 3093 3089 3086 3082 3079 3075 3072 3068 3067 3065 3062 3060 3057
3175 3174 3172 3171 3169 3167 3166 3164 3162 3161 3159 3157 3156 3153 3151 3148 3145 3143 3140 3136 3132 3128 3124 3120 3118 3118 3114 3111 3108 3105 3102 3100 3098 3095 3092 3088 3085 3081 3078 3074 3071 3069 3066 3064 3062 3060 3056
3174 3173 3171 3170 3167 3165 3163 3162 3160 3158 3156 3155 3153 3151 3149 3147 3144 3141 3139 3135 3133 3128 3122 3120 3117 3114 3111 3109 3106 3103 3100 3097 3095 3094 3090 3086 3084 3080 3077 3073 3070 3068 3065 3062 3060 3058 3052
3172 3170 3169 3168 3166 3164 3162 3160 3158 3157 3154 3152 3151 3148 3147 3144 3142 3139 3136 3133 3129 3127 3120 3116 3114 3111 3109 3106 3103 3100 3098 3096 3093 3090 3088 3085 3081 3079 3076 3073 3070 3067 3064 3060 3057 3056 3053
3169 3168 3166 3165 3164 3162 3160 3158 3155 3154 3152 3150 3147 3146 3143 3141 3138 3136 3133 3130 3125 3121 3116 3111 3111 3109 3107 3104 3100 3098 3096 3092 3089 3086 3084 3081 3079 3076 3074 3072 3069 3067 3063 3060 3058 3053 3050
3167 3165 3164 3162 3161 3159 3157 3155 3152 3150 3149 3146 3144 3142 3139 3137 3136 3132 3130 3126 3123 3118 3113 3109 3107 3106 3104 3101 3098 3096 3093 3092 3087 3084 3081 3077 3075 3074 3072 3070 3069 3065 3063 3059 3057 3054 3050
3164 3163 3161 3159 3158 3156 3153 3151 3149 3146 3144 3142 3139 3137 3135 3131 3130 3128 3126 3122 3120 3117 3113 3107 3103 3102 3100 3100 3097 3093 3091 3087 3085 3082 3080 3078 3073 3071 3069 3068 3067 3065 3062 3059 3055 3053 3051
3161 3160 3157 3155 3153 3151 3148 3146 3143 3141 3139 3137 3134 3132 3130 3126 3124 3122 3120 3118 3117 3117 3107 3102 3100 3098 3097 3095 3092 3089 3087 3085 3082 3077 3075 3073 3071 3068 3066 3065 3064 3062 3060 3057 3053 3051 3051
3158 3156 3153 3151 3149 3147 3144 3141 3138 3135 3133 3131 3127 3125 3123 3121 3119 3117 3115 3114 3114 3110 3104 3099 3096 3095 3094 3091 3088 3086 3084 3081 3079 3076 3071 3070 3067 3065 3065 3064 3062 3061 3059 3057 3057 3054 3048
3154 3151 3148 3146 3143 3140 3137 3134 3132 3129 3126 3124 3120 3117 3114 3112 3111 3110 3109 3110 3107 3101 3099 3095 3093 3090 3089 3088 3085 3083 3080 3077 3074 3072 3070 3067 3065 3064 3063 3062 3062 3059 3060 3059 3062 3056 3046
3149 3146 3143 3140 3137 3133 3129 3126 3123 3120 3117 3116 3113 3110 3107 3104 3103 3103 3103 3100 3096 3096 3093 3091 3088 3085 3085 3084 3083 3080 3077 3073 3071 3070 3070 3066 3063 3062 3060 3059 3060 3057 3057 3057 3055 3051 3049
3143 3140 3137 3134 3131 3128 3124 3120 3117 3115 3112 3110 3108 3105 3102 3100 3098 3096 3096 3093 3092 3091 3088 3087 3085 3084 3082 3081 3081 3079 3075 3072 3069 3068 3066 3063 3061 3057 3057 3056 3055 3054 3055 3055 3054 3053 3046
3137 3134 3131 3128 3125 3122 3119 3115 3113 3112 3107 3106 3103 3100 3098 3095 3093 3092 3090 3090 3087 3086 3085 3085 3082 3079 3078 3076 3074 3074 3071 3070 3067 3065 3064 3062 3060 3056 3053 3052 3051 3051 3050 3051 3052 3050 3046
3133 3130 3127 3123 3120 3117 3114 3110 3108 3106 3106 3102 3100 3097 3094 3091 3091 3086 3084 3083 3083 3082 3082 3080 3078 3076 3073 3072 3070 3069 3067 3067 3064 3063 3061 3060 3056 3051 3049 3047 3045 3046 3046 3046 3047 3046 3043
3130 3127 3124 3120 3117 3114 3110 3105 3103 3100 3099 3098 3095 3091 3088 3087 3085 3082 3081 3081 3079 3076 3075 3075 3074 3072 3070 3069 3068 3063 3062 3062 3059 3059 3058 3056 3052 3049 3045 3045 3042 3040 3041 3042 3041 3038 3032
3127 3123 3120 3117 3113 3110 3107 3104 3099 3096 3094 3093 3092 3087 3083 3080 3079 3078 3077 3076 3076 3073 3073 3071 3069 3067 3064 3064 3065 3059 3056 3055 3054 3054 3053 3052 3047 3046 3043 3041 3043 3040 3039 3038 3038 3033 3027
3122 3119 3115 3111 3108 3105 3102 3098 3095 3091 3089 3088 3086 3083 3079 3077 3075 3073 3072 3070 3068 3068 3068 3066 3063 3062 3060 3058 3055 3054 3049 3046 3049 3048 3047 3047 3038 3040 3035 3035 3035 3032 3030 3029 3027 3022 3024
3119 3116 3112 3108 3105 3102 3098 3094 3090 3088 3085 3083 3082 3080 3077 3074 3071 3071 3068 3066 3064 3062 3061 3061 3057 3056 3056 3054 3053 3044 3043 3044 3037 3040 3039 3038 3031 3030 3023 3028 3027 3021 3021 3018 3014 3012 3008
3115 3112 3108 3104 3101 3098 3094 3090 3086 3082 3079 3077 3075 3073 3073 3071 3068 3067 3066 3062 3060 3057 3057 3053 3053 3050 3047 3048 3043 3038 3034 3031 3027 3026 3031 3032 3027 3027 3012 3021 3021 3006 3005 3006 3004 3001 2999
3110 3107 3104 3101 3098 3095 3092 3087 3084 3080 3076 3073 3070 3068 3066 3063 3063 3063 3059 3058 3056 3055 3049 3049 3049 3043 3041 3035 3030 3026 3022 3017 3016 3010 3017 3015 3019 3023 3011 3017 3010 2989 2996 2996 2993 2989 2990
3106 3103 3100 3097 3094 3091 3088 3084 3080 3076 3073 3070 3066 3063 3059 3054 3055 3057 3054 3052 3048 3046 3044 3042 3041 3038 3034 3031 3021 3012 3008 3004 3000 2999 2999 3001 3008 3008 3007 3002 2988 2985 2989 2990 2989 2980 2985
3101 3098 3094 3091 3089 3086 3082 3080 3077 3072 3068 3066 3062 3058 3054 3048 3047 3047 3045 3045 3040 3035 3033 3034 3034 3035 3033 3027 3024 3016 3011 3003 2998 2996 2993 2995 2996 3000 2995 2991 2985 2979 2979 2980 2982 2970 2982
3095 3092 3089 3085 3083 3080 3077 3074 3071 3068 3064 3059 3060 3054 3049 3042 3038 3041 3040 3036 3035 3032 3025 3023 3022 3022 3023 3020 3016 3012 3003 3001 2996 2990 2991 2992 2991 2986 2983 2979 2971 2974 2978 2979 2980 2976 2973
3088 3084 3081 3078 3076 3073 3070 3067 3064 3061 3059 3053 3051 3049 3043 3035 3029 3031 3032 3031 3027 3025 3020 3020 3015 3013 3012 3012 3009 3003 2994 2992 2988 2988 2984 2986 2984 2978 2976 2971 2964 2967 2970 2972 2967 2966 2965
3081 3077 3074 3071 3068 3066 3063 3060 3057 3055 3052 3047 3042 3042 3037 3029 3024 3022 3020 3021 3018 3018 3015 3014 3011 3008 3004 3001 2999 2995 2988 2984 2982 2970 2978 2976 2976 2970 2968 2960 2956 2952 2956 2959 2958 2959 2958